EW8832 Weather Reports


Display with metric or nautical units.
time (UTC)temp
F
wind
direction
speed
MPH
gust
MPH
rain 1hr
in
rain 24hr
in
rain mn
in
humidity
%
barometer
mb
20260508084515 47 210 0.0 2.0 0.00 0.00 0.00 89 1012.1
20260508083012 47 210 1.0 2.0 0.00 0.00 0.00 88 1012.2
20260508080013 47 210 0.0 1.0 0.00 0.00 0.00 88 1012.4
20260508074517 47 210 0.0 3.0 0.00 0.00 0.00 88 1012.5
20260508073008 47 210 2.0 3.0 0.00 0.00 0.00 87 1012.6
20260508070005 48 210 1.0 3.0 0.00 0.00 0.00 87 1013.0
20260508064502 48 210 1.0 3.0 0.00 0.00 0.00 87 1013.2
20260508063102 48 210 1.0 3.0 0.00 0.00 0.00 86 1013.3
20260508060058 49 211 0.0 3.0 0.00 0.00 0.00 84 1013.5
20260508054555 49 211 0.0 2.0 0.00 0.00 0.00 85 1013.6
20260508053115 50 211 0.0 2.0 0.00 0.00 0.00 84 1013.6
20260508050054 50 211 0.0 2.0 0.00 0.00 0.00 85 1013.6
20260508044556 50 211 0.0 2.0 0.00 0.00 0.00 83 1013.7
20260508043058 51 211 0.0 2.0 0.00 0.00 0.00 82 1013.9
20260508040107 51 211 0.0 0.0 0.00 0.00 0.00 81 1014.1
20260508034551 52 211 0.0 2.0 0.00 0.00 0.00 80 1014.2
20260508033050 53 211 0.0 0.0 0.00 0.00 0.00 80 1014.1
20260508030050 53 211 0.0 2.0 0.00 0.00 0.00 75 1014.0
20260508024603 55 261 0.0 0.0 0.00 0.00 0.00 69 1013.7
20260508023051 57 261 0.0 1.0 0.00 0.00 0.00 63 1013.6
20260508020051 58 261 1.0 3.0 0.00 0.00 0.00 62 1013.5
20260508014548 59 261 0.0 1.0 0.00 0.00 0.00 61 1013.3
20260508013051 60 261 0.0 3.0 0.00 0.00 0.00 58 1012.9
20260508010049 63 261 0.0 2.0 0.00 0.00 0.00 53 1012.7
20260508004555 65 261 1.0 2.0 0.00 0.00 0.00 51 1012.8
20260508003047 66 244 0.0 4.0 0.00 0.00 0.00 49 1012.8
20260508000044 67 248 3.0 10.0 0.00 0.00 0.00 47 1013.1
20260507234545 67 230 3.0 9.0 0.00 0.00 0.00 46 1013.1
20260507233057 67 292 4.0 8.0 0.00 0.00 0.00 46 1013.0
20260507230043 67 281 3.0 12.0 0.00 0.00 0.00 47 1013.3
20260507224548 67 262 3.0 9.0 0.00 0.00 0.00 45 1013.3
20260507223039 67 275 7.0 14.0 0.00 0.00 0.00 46 1013.5
20260507220137 68 265 1.0 10.0 0.00 0.00 0.00 46 1013.6
20260507214535 67 257 3.0 7.0 0.00 0.00 0.00 47 1013.7
20260507213039 67 227 4.0 9.0 0.00 0.00 0.00 46 1013.8
20260507210029 67 258 2.0 10.0 0.00 0.00 0.00 47 1014.2
20260507204529 66 249 2.0 11.0 0.00 0.00 0.00 46 1014.5
20260507203026 66 185 4.0 10.0 0.00 0.00 0.00 48 1014.7
20260507200022 65 202 3.0 6.0 0.00 0.00 0.00 45 1014.8
20260507194520 65 254 4.0 12.0 0.00 0.00 0.00 45 1015.2
20260507193024 65 219 5.0 11.0 0.00 0.00 0.00 47 1015.4
20260507190014 64 234 3.0 10.0 0.00 0.00 0.00 45 1015.7
20260507184513 64 294 2.0 8.0 0.00 0.00 0.00 48 1015.9
20260507183019 63 278 7.0 10.0 0.00 0.00 0.00 52 1015.8
20260507180005 63 328 3.0 10.0 0.00 0.00 0.00 46 1016.4
20260507174504 63 47 2.0 6.0 0.00 0.00 0.00 46 1016.8
20260507173004 63 279 4.0 10.0 0.00 0.00 0.00 46 1017.0
20260507170000 62 276 1.0 11.0 0.00 0.00 0.00 51 1017.3
20260507164600 61 325 3.0 10.0 0.00 0.00 0.00 47 1017.5
20260507163057 60 346 2.0 8.0 0.00 0.00 0.00 48 1017.8
20260507161655 60 296 5.0 9.0 0.00 0.00 0.00 47 1018.0
20260507160055 60 240 1.0 5.0 0.00 0.00 0.00 51 1018.0
20260507154552 60 271 1.0 8.0 0.00 0.00 0.00 53 1018.2
20260507153056 59 246 0.0 5.0 0.00 0.00 0.00 55 1018.2
20260507151646 58 230 1.0 6.0 0.00 0.00 0.00 53 1018.3
20260507150049 57 218 2.0 4.0 0.00 0.00 0.00 56 1018.3
20260507144546 56 221 0.0 5.0 0.00 0.00 0.00 65 1018.2
20260507143039 55 174 0.0 6.0 0.00 0.00 0.00 69 1018.2
20260507141637 54 207 1.0 4.0 0.00 0.00 0.00 72 1018.3
20260507140029 52 170 2.0 6.0 0.00 0.00 0.00 77 1018.2
20260507134526 51 163 4.0 7.0 0.00 0.00 0.00 80 1018.4
20260507133022 49 169 4.0 5.0 0.00 0.00 0.00 83 1018.3
20260507131618 48 62 2.0 4.0 0.00 0.00 0.00 91 1018.4
20260507130014 47 9 0.0 2.0 0.00 0.00 0.00 94 1018.2
20260507124517 45 9 1.0 2.0 0.00 0.00 0.00 94 1018.1
20260507123010 43 14 0.0 2.0 0.00 0.00 0.00 94 1017.8
20260507121611 41 14 2.0 3.0 0.00 0.00 0.00 94 1017.7
20260507120027 40 13 0.0 2.0 0.00 0.00 0.00 94 1017.8
20260507114510 39 13 0.0 2.0 0.00 0.00 0.00 93 1017.6
20260507113032 39 13 0.0 1.0 0.00 0.00 0.00 93 1017.6
20260507111607 39 13 0.0 2.0 0.00 0.00 0.00 93 1017.7
20260507110011 39 13 0.0 3.0 0.00 0.00 0.00 93 1017.4
20260507104505 39 12 1.0 3.0 0.00 0.00 0.00 92 1017.2
20260507103006 39 12 0.0 0.0 0.00 0.00 0.00 92 1017.3
20260507101604 39 12 0.0 0.0 0.00 0.00 0.00 92 1017.3
20260507100002 39 12 0.0 0.0 0.00 0.00 0.00 92 1017.6
20260507094501 39 12 0.0 0.0 0.00 0.00 0.00 91 1017.4
20260507093059 40 12 0.0 0.0 0.00 0.00 0.00 91 1017.5
20260507091558 40 12 0.0 0.0 0.00 0.00 0.00 91 1017.2
20260507090057 40 12 0.0 0.0 0.00 0.00 0.00 91 1017.4